Weather History for Homer, AK

Change the Weather History Date:

Thursday, November 8, 2012

  Actual Average Record
Temperature  
Mean Temperature 31 °F -  
Max Temperature 37 °F 37 °F 50 °F (1979)
Min Temperature 25 °F 25 °F 4 °F (1990)
Degree Days  
Heating Degree Days 34    
Moisture  
Dew Point 25 °F    
Average Humidity 72    
Maximum Humidity 86    
Minimum Humidity 53    
Precipitation  
Precipitation 0.04 in - - ()
Sea Level Pressure  
Sea Level Pressure 30.22 in    
Wind  
Wind Speed 3 mph (NE)    
Max Wind Speed 7 mph    
Max Gust Speed -    
Visibility 10 miles    
Events Rain , Snow    
Averages and records for this station are not official NWS values.
T = Trace of Precipitation, MM = Missing Value Source: NWS Daily Summary

Daily Weather History Graph

Daily Weather History Graph

Search for Another Location

Airport:

Trip Planner

Search our weather history database for the weather conditions in past years. The results will help you decide how hot, cold, wet, or windy it might be!

Date:

Astronomy

Nov. 08, 2012 Rise Set
Actual Time 8:46 AM AKST 4:52 PM AKST
Civil Twilight 7:59 AM AKST 5:38 PM AKST
Nautical Twilight 7:09 AM AKST 6:28 PM AKST
Astronomical Twilight 6:21 AM AKST 7:16 PM AKST
Moon 1:30 AM AKST (11/8) 2:51 PM AKST (11/8)
Length of Visible Light 9h 39m
Length of Day
8h 06m
Waning Crescent, 31% of the Moon is Illuminated
Nov 8
Waning Crescent
Nov 13
New
Nov 20
First Quarter
Nov 28
Full
Dec 6
Last Quarter

Hourly Weather History & Observations

Time (AKST) Temp. Windchill Dew Point Humidity Pressure Visibility Wind Dir Wind Speed Gust Speed Precip Events Conditions
12:53 AM 25.0 °F 20.7 °F 12.9 °F 60% 30.34 in 10.0 mi NE 3.5 mph - N/A   Clear
1:53 AM 25.0 °F 19.3 °F 14.0 °F 63% 30.33 in 10.0 mi ENE 4.6 mph - N/A   Clear
3:53 AM 26.1 °F 21.9 °F 10.9 °F 53% 30.32 in 10.0 mi ENE 3.5 mph - N/A   Overcast
4:53 AM 27.0 °F 21.6 °F 12.9 °F 56% 30.31 in 10.0 mi ENE 4.6 mph - N/A   Overcast
5:53 AM 28.9 °F 21.9 °F 14.0 °F 54% 30.28 in 10.0 mi ENE 6.9 mph - N/A   Overcast
6:53 AM 30.0 °F 25.2 °F 19.9 °F 66% 30.28 in 9.0 mi ENE 4.6 mph - 0.00 in   Overcast
7:53 AM 30.9 °F 25.2 °F 21.9 °F 69% 30.26 in 6.0 mi NNE 5.8 mph - N/A   Haze
8:53 AM 33.1 °F 27.7 °F 25.0 °F 72% 30.25 in 10.0 mi ENE 5.8 mph - N/A   Overcast
9:53 AM 34.0 °F 28.8 °F 28.0 °F 79% 30.24 in 10.0 mi ENE 5.8 mph - N/A   Overcast
10:53 AM 35.1 °F - 28.9 °F 78% 30.24 in 9.0 mi Calm Calm - N/A   Overcast
11:53 AM 36.0 °F - 28.9 °F 76% 30.23 in 10.0 mi Calm Calm - N/A   Overcast
12:53 PM 36.0 °F - 28.9 °F 76% 30.22 in 10.0 mi Calm Calm - N/A   Overcast
1:53 PM 37.0 °F - 28.9 °F 73% 30.22 in 10.0 mi Calm Calm - N/A   Overcast
2:53 PM 37.0 °F - 30.0 °F 76% 30.20 in 10.0 mi Calm Calm - N/A   Overcast
3:53 PM 37.0 °F - 30.0 °F 76% 30.18 in 10.0 mi Calm Calm - N/A   Overcast
4:53 PM 36.0 °F - 28.9 °F 76% 30.17 in 10.0 mi Calm Calm - N/A   Overcast
5:53 PM 34.0 °F - 28.9 °F 82% 30.16 in 10.0 mi Calm Calm - N/A   Overcast
6:53 PM 36.0 °F 33.3 °F 28.9 °F 76% 30.14 in 10.0 mi ENE 3.5 mph - N/A   Overcast
7:53 PM 37.9 °F 34.4 °F 30.9 °F 76% 30.14 in 9.0 mi West 4.6 mph - 0.00 in   Overcast
8:53 PM 35.1 °F - 30.0 °F 82% 30.12 in 10.0 mi Calm Calm - N/A   Overcast
9:53 PM 37.0 °F - 30.9 °F 79% 30.12 in 9.0 mi Calm Calm - 0.00 in Snow Light Snow
10:53 PM 37.0 °F - 32.0 °F 82% 30.11 in 10.0 mi Calm Calm - 0.01 in   Overcast
11:53 PM 37.0 °F - 33.1 °F 86% 30.09 in 10.0 mi Calm Calm - 0.03 in Rain Light Rain